Location: Mactaquac Provincial Park
(45.9573°N, 66.8897°W)
Time: 12:30:01
(UTC-03:00)

Cosmos 1867 - Visible Passes

Search period start: 01 October 2016 00:00
Search period end: 11 October 2016 00:00
Orbit: 774 x 802 km, 65.0° (Epoch: 01 October)

Date Brightness Start Highest point End Pass type
(mag) Time Alt. Az. Time Alt. Az. Time Alt. Az.
01 Oct 6.5 00:03:41 10° NNW 00:04:14 12° N 00:04:14 12° N visible
01 Oct 5.9 19:59:08 10° WNW 20:03:06 20° NNW 20:07:04 10° NNE visible
01 Oct 6.3 21:48:26 10° N 21:48:59 10° N 21:49:31 10° N visible
01 Oct 6.3 23:32:12 10° N 23:33:13 12° N 23:33:13 12° N visible
02 Oct 5.7 19:26:50 10° W 19:31:11 23° NW 19:35:34 10° NNE visible
02 Oct 6.2 21:15:42 10° NNW 21:16:54 11° N 21:18:07 10° N visible
02 Oct 6.2 23:00:43 10° N 23:02:13 12° N 23:02:13 12° N visible
03 Oct 6.1 20:43:01 10° NNW 20:44:50 11° NNW 20:46:40 10° N visible
03 Oct 6.1 22:29:15 10° N 22:31:04 11° NNE 22:31:13 11° NNE visible
04 Oct 6.1 20:10:24 10° NW 20:12:48 13° NNW 20:15:12 10° N visible
04 Oct 6.1 21:57:48 10° N 21:59:01 11° N 22:00:13 10° NNE visible
04 Oct 6.4 23:40:22 10° NNW 23:40:54 12° NNW 23:40:54 12° NNW visible
05 Oct 6.0 19:37:52 10° NW 19:40:47 14° NNW 19:43:43 10° N visible
05 Oct 6.1 21:26:24 10° N 21:26:56 10° N 21:27:28 10° N visible
05 Oct 6.2 23:08:51 10° NNW 23:09:57 14° N 23:09:57 14° N visible
06 Oct 6.0 22:37:21 10° NNW 22:39:01 15° N 22:39:01 15° N visible
07 Oct 6.2 20:22:24 10° N 20:22:46 10° N 20:23:08 10° N visible
07 Oct 5.9 22:05:51 10° NNW 22:08:05 14° NNE 22:08:05 14° NNE visible
07 Oct 6.6 23:48:39 10° NNW 23:48:44 10° NNW 23:48:44 10° NNW visible
08 Oct 6.1 19:49:36 10° NNW 19:50:41 10° N 19:51:46 10° N visible
08 Oct 5.8 21:34:23 10° N 21:36:53 13° NNE 21:37:10 13° NNE visible
08 Oct 6.3 23:17:05 10° NNW 23:17:49 13° NNW 23:17:49 13° NNW visible
09 Oct 5.9 21:02:54 10° N 21:04:51 12° NNE 21:06:17 11° NNE visible
09 Oct 6.0 22:45:33 10° NNW 22:46:56 16° NNW 22:46:56 16° NNW visible
10 Oct 5.9 20:31:26 10° N 20:32:47 11° N 20:34:08 10° NNE visible
10 Oct 5.7 22:14:01 10° NNW 22:16:03 18° N 22:16:03 18° N visible
